Location: Lombard
(41.8800°N, 88.0080°W)
Time: 02:00:44
(UTC-06:00)

A-11 Canister half - Pass Details

Date: 29 January 2023
Orbit: 1514 x 1685 km, 47.2° (Epoch: 28 November)

Event Time Altitude Azimuth Distance (km) Brightness Sun altitude
Rises 12:03:56 0° 231° (SW) 4,825 12.1 30.3°
Reaches altitude 10° 12:07:05 10° 230° (SW) 3,818 11.7 30.3°
Maximum altitude 12:16:42 73° 148° (SSE) 1,622 10.0 30.2°
Drops below altitude 10° 12:26:01 10° 66° (ENE) 3,705 10.8 30.1°
Sets 12:29:02 0° 64° (ENE) 4,676 11.3 30.0°
